Regional Weather Roundup
Issued by NWS

Home | Current Version | Previous Version | Text Only | Print | Product List | Glossary Off
Versions: 1 2 3 4 5 6 7 8 9 10 11 12 13 14 15 16 17 18 19 20 21 22 23 24 25 26 27 28 29 30 31 32 33 34 35 36 37 38 39 40 41 42 43 44 45 46 47 48 49 50

000
ASUS43 KFSD 222302
RWRSD

WEATHER ROUNDUP FOR SOUTH DAKOTA
NATIONAL WEATHER SERVICE SIOUX FALLS SD
600 PM CDT WED OCT 22 2014

NOTE: "FAIR" INDICATES FEW OR NO CLOUDS BELOW 12,000 FEET WITH NO
SIGNIFICANT WEATHER AND/OR OBSTRUCTIONS TO VISIBILITY.


SDZ001>005-009-010-012>017-230000-
NORTHWEST AND NORTH CENTRAL SOUTH DAKOTA

CITY           SKY/WX    TMP DP  RH WIND       PRES   REMARKS
FAITH            N/A     63  29  27 W15       29.95R
MOBRIDGE       CLEAR     66  39  37 W10       29.87F
$$

SDZ012>016-024>037-041>051-057-063-072>074-230000-
SOUTHWEST AND SOUTH CENTRAL SOUTH DAKOTA

CITY           SKY/WX    TMP DP  RH WIND       PRES   REMARKS
RAPID CTY ARPT CLEAR     63  33  32 SE3       29.99S
PIERRE         CLEAR     64  41  42 NW7       29.93S
CUSTER         CLEAR     52  24  33 W12       30.05S
ELLSWORTH AFB  CLEAR     63  30  29 E5        29.99R
PHILIP         CLEAR     65  32  29 NW8       29.96S
PINE RIDGE     CLEAR     62  30  29 W12       30.02S
SPEARFISH      FAIR      57  28  33 W9        30.01S
WINNER         FAIR      64  42  44 NW8       29.98R
$$

SDZ004>011-016>023-039-040-230000-
NORTHEAST SOUTH DAKOTA

CITY           SKY/WX    TMP DP  RH WIND       PRES   REMARKS
ABERDEEN       CLOUDY    57  52  83 W8        29.92S
WATERTOWN      CLOUDY    55  54  96 S7        29.93R
SISSETON         N/A     57  55  93 CALM      29.88R
$$

SDZ017-020-022-023-036>040-048>070-230000-
SOUTHEAST SOUTH DAKOTA

CITY           SKY/WX    TMP DP  RH WIND       PRES   REMARKS
SIOUX FALLS    LGT RAIN  59  57  93 S6        29.96R FOG
HURON          CLOUDY    58  53  84 W6        29.95R
CHAMBERLAIN    MOCLDY    60  50  70 S6        29.97R
MITCHELL       CLOUDY    58  55  90 W7        29.98R
YANKTON        CLOUDY    57  54  88 SW5       29.98F
$$

ABBREVIATIONS USED IN REMARKS
   TC - TEMPERATURE IN CELSIUS
  WCI - WIND CHILL INDEX
   HX - HEAT INDEX
  VSB - VISIBILITY




USA.gov is the U.S. government's official web portal to all federal, state and local government web resources and services.